Weather Roundup
Issued by NWS

Home | Current Version | Previous Version | Text Only | Print | Product List | Glossary On
Versions: 1 2 3 4 5 6 7 8 9 10 11 12 13 14 15 16 17 18 19 20 21 22 23 24 25 26 27 28 29 30 31 32 33 34 35 36 37 38 39 40 41 42 43 44 45 46 47 48 49 50
000
NZUS93 KARX 290310
HRRWXR

CURRENT HOURLY OBSERVATIONS ACROSS
MUCH OF THE UPPER MISSISSIPPI VALLEY
NATIONAL WEATHER SERVICE LA CROSSE WI
1000 PM CDT FRI AUG 28 2015


...SOUTHEAST MINNESOTA...


CITY           SKY/WX    TMP DP  RH WIND       PRES   REMARKS
ROCHESTER      CLOUDY    58  56  93 E13       30.02F
ROCHESTER/MAYO MOCLDY    58  59 100 E8        30.03S
WINONA         MOCLDY    59  55  88 SE9       30.04F
AUSTIN         CLOUDY    59  57  94 E10       29.99S
ALBERT LEA     MOCLDY    57  57 100 NE6       30.01R
DODGE CENTER   PTCLDY    55  55 100 E6        30.03S
PRESTON        CLOUDY    57  55  95 E9        30.03S
OWATONNA       CLEAR     57  54  88 E5        30.01S
FARIBAULT      CLEAR     57  55  94 N3        30.03F
$$

...ELSEWHERE IN MINNESOTA...


CITY           SKY/WX    TMP DP  RH WIND       PRES   REMARKS
MINNEAPOLIS    PTCLDY    61  55  81 SE3       30.05R
INTNL FALLS    MOCLDY    72  65  78 SW8G16    29.88R
DULUTH         PTCLDY    67  60  78 SW13      30.00R
RED WING       CLEAR     61  55  82 E6        30.03S
REDWOOD FALLS  CLEAR     60  57  89 SE3       30.02R
MANKATO        CLEAR     61  54  77 NE6       30.03S
WORTHINGTON    CLOUDY    61  55  82 NE9       30.02S
FAIRMONT       CLOUDY    59  52  77 NE5       30.00F
$$

...SOUTHWEST WISCONSIN...


CITY           SKY/WX    TMP DP  RH WIND       PRES   REMARKS
LA CROSSE      CLOUDY    60  57  89 SE8       30.04F
PRAIRIE DU CHI RAIN      62  61  96 NE6       30.00R
BOSCOBEL       LGT RAIN  63  62  97 NE6       30.03R FOG
LONE ROCK      LGT RAIN  64  61  90 NE6       30.06S
PLATTEVILLE    CLOUDY    64  64  98 SE14      30.01F
FORT MC COY    CLOUDY    57  55  94 E5        30.07F
CAMP DOUGLAS   CLOUDY    57  57 100 SE9       30.07F
VIROQUA        CLOUDY    57  57 100 E10       30.06F
WIS DELLS      RAIN      58  56  92 NE9       30.09R
$$

...ELSEWHERE IN WISCONSIN...


CITY           SKY/WX    TMP DP  RH WIND       PRES   REMARKS
MILWAUKEE      CLOUDY    63  60  90 N7        30.11R FOG
MADISON        RAIN      64  62  93 E10       30.06F FOG
GREEN BAY      LGT RAIN  62  59  90 SW5       30.12R
EAU CLAIRE     CLEAR     56  54  93 NE7       30.07R
BLACK RVR FLS  FAIR      57  56  99 SE5       30.06F
MEDFORD        MOCLDY    58  57  97 CALM      30.10F
WAUSAU         CLOUDY    61  59  93 S8        30.10R
WIS RAPIDS     CLOUDY    58  54  86 SE8       30.11F
MARSHFIELD     CLOUDY    59  54  83 SE8       30.09F
RICE LAKE      PTCLDY    61  57  87 S5        30.09S
$$

...NORTHEAST IOWA...


CITY           SKY/WX    TMP DP  RH WIND       PRES   REMARKS
DECORAH        CLOUDY    59  59 100 E12G17    30.00S FOG
MASON CITY     CLOUDY    59  59 100 NE10      29.99R
CHARLES CITY   CLOUDY    61  61 100 NE15      29.98S FOG
OELWEIN          N/A     64  64 100 SE6       29.96S FOG
$$

...ELSEWHERE IN IOWA...


CITY           SKY/WX    TMP DP  RH WIND       PRES   REMARKS
DES MOINES     CLOUDY    72  67  84 SE6       29.89S
IOWA CITY      LGT RAIN  66  65  96 SE12G22   29.97F
FORT DODGE     CLOUDY    61  57  88 N9        29.96R
$$

...NORTHERN ILLINOIS...


CITY           SKY/WX    TMP DP  RH WIND       PRES   REMARKS
CHICAGO-OHARE  CLOUDY    70  63  78 E9        30.07F
CHICAGO-MIDWAY CLOUDY    72  63  73 E7        30.08R
MOLINE         CLOUDY    69  63  81 NE3       30.01R
ROCKFORD       LGT RAIN  68  60  75 E13       30.07R
PEORIA         MOCLDY    72  59  63 SE8       30.01R
$$

NOTE: "FAIR" INDICATES FEW OR NO CLOUDS BELOW 12,000 FEET WITH NO
SIGNIFICANT WEATHER AND/OR OBSTRUCTIONS TO VISIBILITY. WIND
SPEEDS ARE IN MILES-PER-HOUR.



USA.gov is the U.S. government's official web portal to all federal, state and local government web resources and services.